Location: Oshawa
(43.9000°N, 78.8670°W)
Time: 20:49:26
(UTC-04:00)

Cosmos 1805 Rocket - Visible Passes

Search period start: 16 April 2014 00:00
Search period end: 26 April 2014 00:00
Orbit: 609 x 631 km, 82.5° (Epoch: 15 April)

Date Brightness Start Highest point End Pass type
(mag) Time Alt. Az. Time Alt. Az. Time Alt. Az.
16 Apr 5.1 04:58:12 10° SSE 05:02:13 37° E 05:06:17 10° NNE visible
17 Apr 3.9 05:15:27 10° S 05:19:48 70° E 05:24:13 10° NNE visible
18 Apr 6.5 03:58:25 10° ESE 04:00:12 12° E 04:01:59 10° ENE visible
18 Apr 3.6 05:33:09 10° SSW 05:37:29 62° W 05:41:53 10° N visible
19 Apr 5.8 04:14:12 10° SE 04:17:36 22° E 04:21:01 10° NE visible
19 Apr 4.3 05:51:18 10° SW 05:55:17 33° WNW 05:59:19 10° N visible
20 Apr 4.8 04:31:00 10° SSE 04:35:06 40° E 04:39:15 10° NNE visible
21 Apr 3.7 04:48:44 13° S 04:52:42 77° E 04:57:08 10° NNE visible
22 Apr 6.3 03:30:54 10° ESE 03:33:03 14° E 03:35:12 10° NE visible
22 Apr 3.7 05:06:44 14° SSW 05:10:24 57° W 05:14:47 10° N visible
23 Apr 5.6 03:47:29 13° SE 03:50:28 24° E 03:54:02 10° NE visible
23 Apr 4.5 05:24:41 12° SW 05:28:12 31° WNW 05:32:10 10° NNW visible
24 Apr 4.6 04:05:23 21° SSE 04:07:58 44° E 04:12:12 10° NNE visible
24 Apr 5.2 05:43:05 10° WSW 05:46:06 18° WNW 05:49:10 10° NNW visible
25 Apr 3.6 04:23:16 28° S 04:25:35 84° E 04:30:03 10° N visible
